FW1093 Weather Reports


time (UTC)temp
C
wind
direction
speed
KPH
gust
KPH
rain 1hr
cm
rain 24hr
cm
rain mn
cm
humidity
%
barometer
mb
20260906184335 20 295 0.0 1.6 0.00 0.00 0.00 77 1015.9
20260906183320 20 285 0.0 0.0 0.00 0.00 0.00 79 1016.0
20260906182327 20 285 0.0 1.6 0.00 0.00 0.00 80 1016.0
20260906181336 20 285 0.0 1.6 0.00 0.00 0.00 76 1015.9
20260906180323 20 297 0.0 0.0 0.00 0.00 0.00 77 1015.9
20260906175312 20 273 0.0 3.2 0.00 0.00 0.00 78 1015.9
20260906174328 20 289 0.0 3.2 0.00 0.00 0.00 81 1016.0
20260906173336 20 289 0.0 1.6 0.00 0.00 0.00 79 1016.1
20260906172342 20 231 0.0 3.2 0.00 0.00 0.00 78 1016.0
20260906171328 20 276 0.0 3.2 0.00 0.00 0.00 74 1016.0
20260906170317 21 276 0.0 1.6 0.00 0.00 0.00 76 1015.9
20260906165325 21 285 0.0 1.6 0.00 0.00 0.00 77 1016.0
20260906164331 20 288 0.0 3.2 0.00 0.00 0.00 75 1016.0
20260906163319 20 349 0.0 3.2 0.00 0.00 0.00 76 1016.1
20260906162334 19 287 0.0 3.2 0.00 0.00 0.00 78 1016.2
20260906161323 19 289 0.0 3.2 0.00 0.00 0.00 80 1016.1
20260906160337 19 284 0.0 3.2 0.00 0.00 0.00 80 1016.3
20260906155353 19 319 0.0 1.6 0.00 0.00 0.00 81 1016.3
20260906154340 18 285 0.0 1.6 0.00 0.00 0.00 81 1016.4
20260906153328 18 297 0.0 1.6 0.00 0.00 0.00 81 1016.7
20260906152335 18 280 0.0 3.2 0.00 0.00 0.00 80 1016.6
20260906151324 18 277 0.0 1.6 0.00 0.00 0.00 82 1016.6
20260906150332 18 283 0.0 3.2 0.00 0.00 0.00 84 1016.6
20260906145322 18 279 0.0 3.2 0.00 0.00 0.00 83 1016.6
20260906144330 18 291 0.0 1.6 0.00 0.00 0.00 84 1016.6
20260906143317 17 282 0.0 1.6 0.00 0.00 0.00 87 1016.5
20260906142325 17 285 0.0 1.6 0.00 0.00 0.00 87 1016.6
20260906141317 17 278 0.0 1.6 0.00 0.00 0.00 88 1016.5
20260906140325 17 277 0.0 4.8 0.00 0.00 0.00 89 1016.5
20260906135333 17 293 0.0 3.2 0.00 0.00 0.00 89 1016.3
20260906134323 17 319 0.0 1.6 0.00 0.00 0.00 91 1016.3
20260906133358 16 283 0.0 1.6 0.00 0.00 0.00 90 1016.3
20260906132324 16 293 0.0 3.2 0.00 0.00 0.00 91 1016.3
20260906131359 16 280 0.0 1.6 0.00 0.00 0.00 92 1016.3
20260906130327 16 270 0.0 1.6 0.00 0.00 0.00 92 1016.2
20260906125316 16 269 0.0 1.6 0.00 0.00 0.00 93 1016.1
20260906124351 16 293 0.0 3.2 0.00 0.00 0.00 94 1016.1
20260906123319 16 277 0.0 1.6 0.00 0.00 0.00 95 1016.0
20260906122326 15 278 0.0 1.6 0.00 0.00 0.00 96 1015.9
20260906121421 15 278 0.0 1.6 0.00 0.00 0.00 96 1015.7
20260906120326 15 277 0.0 1.6 0.00 0.00 0.00 96 1015.5
20260906115330 15 276 0.0 1.6 0.00 0.00 0.00 97 1015.6
20260906114317 15 276 0.0 0.0 0.00 0.00 0.00 97 1015.4
20260906113324 14 276 0.0 0.0 0.00 0.00 0.00 97 1015.2
20260906112312 14 276 0.0 0.0 0.00 0.00 0.00 97 1015.3
20260906111322 14 276 0.0 0.0 0.00 0.00 0.00 96 1015.2
20260906110329 14 276 0.0 0.0 0.00 0.00 0.00 96 1014.9
20260906105343 14 276 0.0 0.0 0.00 0.00 0.00 96 1014.7
20260906104331 14 276 0.0 0.0 0.00 0.00 0.00 96 1014.6
20260906103319 15 276 0.0 0.0 0.00 0.00 0.00 96 1014.3
20260906102325 14 276 0.0 0.0 0.00 0.00 0.00 96 1014.5
20260906101342 14 276 0.0 0.0 0.00 0.00 0.00 96 1014.4
20260906100329 14 276 0.0 0.0 0.00 0.00 0.00 96 1014.3
20260906095335 14 276 0.0 0.0 0.00 0.00 0.00 95 1014.1
20260906094324 15 276 0.0 0.0 0.00 0.00 0.00 95 1013.9
20260906093314 15 276 0.0 0.0 0.00 0.00 0.00 95 1013.8
20260906092322 15 276 0.0 0.0 0.00 0.00 0.00 95 1013.9
20260906091329 15 276 0.0 0.0 0.00 0.00 0.00 95 1013.7
20260906090316 15 276 0.0 0.0 0.00 0.00 0.00 95 1013.7
20260906085325 15 276 0.0 0.0 0.00 0.00 0.00 95 1013.7
20260906084312 15 276 0.0 0.0 0.00 0.00 0.00 95 1013.6
20260906083322 15 276 0.0 0.0 0.00 0.00 0.00 95 1013.7
20260906082330 15 276 0.0 0.0 0.00 0.00 0.00 95 1013.7
20260906081337 15 276 0.0 0.0 0.00 0.00 0.00 95 1013.6
20260906080333 15 276 0.0 0.0 0.00 0.00 0.00 95 1013.4
20260906075322 15 276 0.0 0.0 0.00 0.00 0.00 94 1013.3
20260906074329 15 276 0.0 0.0 0.00 0.00 0.00 94 1013.3
20260906073320 15 276 0.0 0.0 0.00 0.00 0.00 94 1013.4
20260906072328 15 276 0.0 0.0 0.00 0.00 0.00 94 1013.4
20260906071318 16 276 0.0 0.0 0.00 0.00 0.00 94 1013.6
20260906070326 15 276 0.0 1.6 0.00 0.00 0.00 94 1013.6
20260906065316 15 295 0.0 0.0 0.00 0.00 0.00 93 1013.5
20260906064323 15 295 0.0 0.0 0.00 0.00 0.00 93 1013.5
20260906063316 15 295 0.0 0.0 0.00 0.00 0.00 92 1013.4
20260906062348 16 295 0.0 0.0 0.00 0.00 0.00 92 1013.4
20260906061318 16 295 0.0 0.0 0.00 0.00 0.00 91 1013.6
20260906060349 16 295 0.0 0.0 0.00 0.00 0.00 90 1013.8
20260906055322 16 295 0.0 0.0 0.00 0.00 0.00 90 1013.8
20260906054329 16 295 0.0 0.0 0.00 0.00 0.00 90 1013.7
20260906053317 16 295 0.0 1.6 0.00 0.00 0.00 90 1013.8
20260906052334 16 295 0.0 1.6 0.00 0.00 0.00 91 1013.5
20260906051342 16 273 0.0 1.6 0.00 0.00 0.00 92 1013.5
20260906050335 16 274 0.0 1.6 0.00 0.00 0.00 94 1013.6
20260906045324 17 276 0.0 1.6 0.00 0.00 0.00 96 1013.7
20260906044313 16 276 0.0 0.0 0.00 0.00 0.00 96 1013.6
20260906043329 16 276 0.0 0.0 0.00 0.00 0.00 96 1013.4
20260906042316 16 276 0.0 0.0 0.00 0.00 0.00 96 1013.5
20260906041326 16 276 0.0 0.0 0.00 0.00 0.00 95 1013.4
20260906040333 17 276 0.0 0.0 0.00 0.00 0.00 95 1013.5
20260906035316 17 276 0.0 0.0 0.00 0.00 0.00 95 1013.4
20260906034333 17 276 0.0 0.0 0.00 0.00 0.00 95 1013.3
20260906033328 17 276 0.0 0.0 0.00 0.00 0.00 95 1013.4
20260906032315 17 276 0.0 0.0 0.00 0.00 0.00 95 1013.4
20260906031350 17 276 0.0 0.0 0.00 0.00 0.00 95 1013.4
20260906030338 17 276 0.0 0.0 0.00 0.00 0.00 95 1013.2
20260906025334 17 276 0.0 0.0 0.00 0.00 0.00 95 1013.4
20260906024322 17 276 0.0 0.0 0.00 0.00 0.00 94 1013.4
20260906023337 17 276 0.0 0.0 0.00 0.00 0.00 94 1013.3
20260906022331 17 276 0.0 0.0 0.00 0.00 0.00 94 1013.2
20260906021346 17 276 0.0 0.0 0.00 0.00 0.00 94 1013.2
20260906020334 17 276 0.0 0.0 0.00 0.00 0.00 93 1013.1
20260906015322 17 276 0.0 0.0 0.00 0.00 0.00 93 1013.1
20260906014313 17 276 0.0 0.0 0.00 0.00 0.00 93 1013.1
20260906013329 18 276 0.0 0.0 0.00 0.00 0.00 93 1013.1
20260906012317 17 276 0.0 0.0 0.00 0.00 0.00 93 1012.9
20260906011323 17 276 0.0 0.0 0.00 0.00 0.00 93 1012.9
20260906010358 18 276 0.0 0.0 0.00 0.00 0.00 92 1012.6
20260906005325 18 276 0.0 0.0 0.00 0.00 0.00 92 1012.6
20260906004329 17 276 0.0 0.0 0.00 0.00 0.00 92 1012.6
20260906003316 18 276 0.0 0.0 0.00 0.00 0.00 91 1012.4
20260906002323 18 276 0.0 0.0 0.00 0.00 0.00 91 1012.4
20260906001313 18 276 0.0 0.0 0.00 0.00 0.00 90 1012.2
20260906000329 18 276 0.0 0.0 0.00 0.00 0.00 91 1012.2
20260905235315 18 276 0.0 0.0 0.00 0.00 0.00 90 1012.0
20260905234326 19 276 0.0 0.0 0.00 0.00 0.00 89 1011.8
20260905233314 20 276 0.0 0.0 0.00 0.00 0.00 89 1011.7
20260905231323 20 276 0.0 0.0 0.00 0.00 0.00 90 1011.5
20260905230330 20 276 0.0 0.0 0.00 0.00 0.00 90 1011.6
20260905225318 20 276 0.0 0.0 0.00 0.00 0.00 89 1011.4
20260905224327 21 276 0.0 0.0 0.00 0.00 0.00 88 1011.4
20260905223342 21 276 0.0 0.0 0.00 0.00 0.00 89 1011.4
20260905222337 21 276 0.0 0.0 0.00 0.00 0.00 89 1011.5
20260905221326 21 276 0.0 0.0 0.00 0.00 0.00 88 1011.3
20260905220334 21 276 0.0 0.0 0.00 0.00 0.00 88 1011.2
20260905215344 21 276 0.0 0.0 0.00 0.00 0.00 88 1011.3
20260905214331 21 276 0.0 0.0 0.00 0.00 0.00 88 1011.3
20260905213320 21 276 0.0 0.0 0.00 0.00 0.00 87 1011.1
20260905212327 21 276 0.0 0.0 0.00 0.00 0.00 86 1011.0
20260905211314 22 276 0.0 0.0 0.00 0.00 0.00 86 1011.0
20260905210323 22 276 0.0 0.0 0.00 0.00 0.00 85 1010.9
20260905205313 21 276 0.0 0.0 0.00 0.00 0.00 85 1010.9
20260905204328 21 276 0.0 0.0 0.00 0.00 0.00 85 1010.8
20260905203356 21 276 0.0 0.0 0.00 0.00 0.00 84 1010.7
20260905202322 21 276 0.0 0.0 0.00 0.00 0.00 83 1010.8
20260905201313 22 276 0.0 0.0 0.00 0.00 0.00 80 1010.8
20260905200328 22 276 0.0 0.0 0.00 0.00 0.00 81 1010.6
20260905195317 22 276 0.0 0.0 0.00 0.00 0.00 82 1010.6
20260905194328 22 276 0.0 0.0 0.00 0.00 0.00 81 1010.7
20260905193315 22 276 0.0 0.0 0.00 0.00 0.00 80 1010.6
20260905192330 22 276 0.0 0.0 0.00 0.00 0.00 79 1010.7
20260905191320 22 276 0.0 0.0 0.00 0.00 0.00 78 1010.6
20260905190336 22 276 0.0 0.0 0.00 0.00 0.00 78 1010.7
20260905185324 23 276 0.0 0.0 0.00 0.00 0.00 76 1010.6